Location: Monfort
(47.1967°N, 0.2115°W)
Time: 12:01:34
(UTC+00:00)

In-Cosmos 22 Rocket - Pass Details

Date: 24 October 2020
Orbit: 790 x 888 km, 81.2° (Epoch: 27 November)

Event Time Altitude Azimuth Distance (km) Brightness Sun altitude
Rises 18:49:33 0° 347° (NNW) 3,303 7.5 -19.8°
Reaches altitude 10° 18:51:55 10° 346° (NNW) 2,374 6.8 -20.2°
Maximum altitude 18:57:15 75° 262° (W) 834 4.2 -21.1°
Drops below altitude 10° 19:02:39 10° 177° (S) 2,399 6.5 -22.0°
Sets 19:05:03 0° 176° (S) 3,341 7.2 -22.4°
